Home > Weather > Altdorf > Past weeks

Flag for Switzerland Weather for the Past 2 Weeks in Altdorf, Uri, Switzerland

Now
37 °F

Light rain. Partly cloudy.


Feels Like: 31 °F
Forecast: 39 / 46 °F
Wind: 8 mph from Southwest

Location: Zurich-Kloten

Current Time: Feb 13, 2016 at 3:46:47 AM

Latest Report: Feb 13, 2016 at 2:50 AM


Visibility: 6 mi

Pressure: 29.36 "Hg

Humidity: 87%

Dew point: 34 °F

Location of AltdorfLocation

Historic Weather in Altdorf — Graph

°F

Altdorf Temperature Yesterday

Maximum temperature yesterday: 43 °F (at 12:20 PM)
Minimum temperature yesterday: 32 °F (at 8:20 AM)
Average temperature yesterday: 37 °F

High & Low Weather Summary for the Past Weeks

 TemperatureHumidityPressure
High55 °F (Feb 1, 11:20 AM)100% (Jan 30, 3:50 AM)30.48 "Hg (Jan 30, 3:50 AM)
Low30 °F (Jan 30, 5:50 AM)46% (Feb 11, 2:20 PM)29.33 "Hg (Feb 9, 4:50 PM)
Average42 °F81%30.00 "Hg
* Reported Jan 29 1:50 AM — Feb 13 1:50 AM, Altdorf, Weather by CustomWeather, © 2016

Note: Actual official high and low records may vary slightly from our data, if they occured in-between our weather recording intervals... More about our weather records

Advertising

Altdorf Weather History for the Previous 24 Hours

 ConditionsComfort  
Time TempWeatherWind HumidityBarometerVisibility
1:50 AM
Sat, Feb 13
36 °FRain. Passing clouds.7 mph93%29.36 "Hg4 mi
1:20 AM36 °FLight rain. Passing clouds.7 mph93%29.36 "Hg5 mi
12:50 AM36 °FRain. Partly cloudy.3 mph93%29.36 "Hg3 mi
12:20 AM36 °FRain. Passing clouds.3 mph93%29.36 "Hg2 mi
11:50 PM
Fri, Feb 12
36 °FLight rain. Partly cloudy.2 mph93%29.33 "Hg5 mi
11:20 PM37 °FLight rain. Partly cloudy.3 mph87%29.36 "HgN/A
10:20 PM37 °FSprinkles. Partly cloudy.5 mph87%29.33 "Hg4 mi
9:50 PM36 °FPartly cloudy.5 mph93%29.36 "Hg4 mi
9:20 PM34 °FPartly cloudy.1 mph100%29.36 "Hg3 mi
8:50 PM34 °FPartly cloudy.1 mph100%29.36 "Hg4 mi
8:20 PM34 °FLight rain. Partly cloudy.No wind93%29.36 "Hg3 mi
7:50 PM34 °FLight rain. Partly cloudy.3 mph93%29.36 "Hg3 mi
7:20 PM36 °FPartly cloudy.1 mph93%29.36 "Hg4 mi
6:50 PM36 °FLight rain. Partly cloudy.3 mph87%29.36 "Hg3 mi
6:20 PM36 °FLight rain. Partly cloudy.1 mph87%29.36 "Hg3 mi
5:50 PM36 °FLight rain. Partly cloudy.3 mph93%29.36 "Hg4 mi
5:20 PM37 °FLight rain. Broken clouds.6 mph81%29.36 "Hg4 mi
4:50 PM37 °FLight rain. Broken clouds.6 mph81%29.36 "Hg4 mi
4:20 PM39 °FLight rain. Broken clouds.14 mph70%29.36 "Hg4 mi
3:50 PM41 °FLight rain. Broken clouds.7 mph57%29.36 "Hg5 mi
3:20 PM41 °FBroken clouds.7 mph61%29.36 "HgN/A
2:50 PM43 °FBroken clouds.7 mph61%29.39 "HgN/A
2:20 PM43 °FBroken clouds.7 mph57%29.39 "HgN/A
1:50 PM43 °FPartly sunny.7 mph57%29.42 "HgN/A
1:20 PM43 °FPartly sunny.6 mph61%29.45 "HgN/A
12:50 PM43 °FPartly sunny.8 mph61%29.47 "HgN/A
12:20 PM43 °FPartly sunny.8 mph61%29.47 "HgN/A
11:50 AM41 °FPartly sunny.5 mph61%29.50 "HgN/A
11:20 AM41 °FPassing clouds.3 mph61%29.53 "HgN/A
10:50 AM41 °FPassing clouds.5 mph66%29.56 "HgN/A
10:20 AM39 °FPassing clouds.6 mph75%29.56 "HgN/A
9:50 AM37 °FPassing clouds.6 mph81%29.59 "HgN/A
9:20 AM36 °FScattered clouds.7 mph87%29.59 "Hg5 mi
8:50 AM34 °FPartly sunny.7 mph93%29.62 "Hg5 mi
8:20 AM32 °FPartly sunny.8 mph93%29.65 "HgN/A
7:50 AM34 °FBroken clouds.8 mph87%29.65 "Hg6 mi
7:20 AM34 °FPartly cloudy.8 mph93%29.65 "Hg6 mi
6:50 AM34 °FPartly cloudy.6 mph93%29.68 "Hg6 mi
6:20 AM34 °FPassing clouds.5 mph93%29.68 "HgN/A
5:50 AM34 °FPassing clouds.5 mph93%29.68 "HgN/A
5:20 AM34 °FSprinkles. Passing clouds.6 mph93%29.71 "HgN/A
4:50 AM34 °FPartly cloudy.5 mph93%29.71 "HgN/A
4:20 AM34 °FPartly cloudy.5 mph93%29.71 "HgN/A
3:50 AM34 °FSprinkles. Partly cloudy.7 mph93%29.71 "HgN/A
3:20 AM34 °FSprinkles. Passing clouds.8 mph93%29.71 "HgN/A
Weather by CustomWeather, © 2016

See weather overviewHow to use our weather pages